Overview Statistics Trail Chart Weather Telemetry Raw packets
 

This is the latest recevied weather packets stored in our database for station/object R2AKT-13. If no packets are shown the sender has not sent any weather packets the latest 10 day(s).

<< 9 10 11 12 13 14 15 >>
Time Temp. Humidity Pressure Rain* Wind** Luminosity Snow
1788575271 12.78° C 75% 977.1 hPa - 4.02 m/s, 171° - -
1788574711 12.78° C 74% 977.5 hPa - 3.13 m/s, 171° - -
1788574136 13.33° C 74% 977.7 hPa - 3.13 m/s, 166° - -
1788573626 13.33° C 74% 977.8 hPa - 3.58 m/s, 176° - -
1788573081 13.33° C 74% 978 hPa - 3.13 m/s, 174° - -
1788572511 13.33° C 73% 978.3 hPa - 4.02 m/s, 183° - -
1788571961 13.33° C 73% 978.4 hPa - 2.68 m/s, 171° - -
1788571434 13.33° C 72% 978.5 hPa - 3.58 m/s, 168° - -
1788570931 13.89° C 72% 978.6 hPa - 4.02 m/s, 172° - -
1788570371 13.89° C 71% 978.9 hPa - 2.24 m/s, 171° - -
1788569831 13.89° C 71% 979.1 hPa - 2.24 m/s, 171° - -
1788569265 13.89° C 71% 979.3 hPa - 2.68 m/s, 177° - -
1788568766 13.89° C 71% 979.4 hPa - 3.13 m/s, 181° - -
1788568196 13.89° C 70% 979.5 hPa - 3.58 m/s, 174° - -
1788567711 13.89° C 70% 979.6 hPa - 3.13 m/s, 176° - -
1788567201 13.89° C 69% 979.8 hPa - 3.13 m/s, 184° - -
1788566601 14.44° C 69% 979.8 hPa - 3.58 m/s, 174° - -
1788566041 14.44° C 69% 980 hPa - 3.58 m/s, 178° - -
1788565531 14.44° C 68% 980.1 hPa - 2.68 m/s, 173° - -
1788564946 14.44° C 68% 980.2 hPa - 3.13 m/s, 174° - -
1788564399 14.44° C 68% 980.4 hPa - 3.58 m/s, 182° - -
1788563891 14.44° C 68% 980.5 hPa - 4.02 m/s, 183° - -
1788563351 14.44° C 68% 980.7 hPa - 3.13 m/s, 188° - -
1788562801 14.44° C 68% 980.9 hPa - 3.58 m/s, 174° - -
1788562296 14.44° C 68% 981 hPa - 3.13 m/s, 181° - -

* Rain since midnight (hover to see other rain measurements)
** Current wind speed in m/s (hover to see current wind gust speed)